Temperature
20 18 18 18 18 19 19 19 18 18 18 17 17 16 16 16 16 15 15 15 16 16 16 17 17 17 17 17 16 17 16 16 16 16 15 15 15 15 15 15 15 15 14 14
18 19 19 19 19 19 19 18 18 18 18 17 16 16 16 16 15 15 15 15 15 15 16 16 16 16 16 16 16 16 16 16 15 15 15 15 15 15 15 15 15 14 14 14
20 20 20 20 19 19 19 18 18 17 17 17 17 16 16 16 16 16 15 15 15 15 15 15 16 16 16 16 16 15 15 15 15 15 15 15 15 15 15 15 14 14 14 14
20 20 20 20 20 19 18 19 19 18 16 15 17 16 16 15 15 15 15 15 15 15 15 15 15 15 15 15 15 15 15 15 15 15 15 15 14 14 14 14 14 14 14 14
20 20 20 20 20 19 19 18 18 17 16 15 15 15 15 15 15 15 15 15 15 15 15 15 15 15 15 15 15 15 15 15 15 15 14 14 14 14 14 14 14 14 14 14
20 20 20 20 20 19 18 17 16 15 14 15 15 15 15 14 15 15 15 15 15 15 15 15 15 15 15 15 15 14 14 15 14 14 14 14 14 14 14 14 13 14 14 13
19 20 20 20 19 19 17 16 15 16 15 15 15 15 15 15 15 15 15 15 15 15 15 15 15 15 15 15 14 14 14 14 14 14 14 14 14 14 14 14 13 13 13 13
18 18 19 19 19 18 17 16 16 16 15 15 15 15 15 15 16 16 15 15 15 15 15 15 15 14 14 14 14 14 14 14 14 14 14 14 14 14 14 13 13 13 13 13
18 18 20 20 19 18 17 15 15 14 15 15 15 15 16 15 15 15 15 15 15 15 15 15 14 14 14 14 14 14 14 14 14 14 14 14 14 14 13 13 13 13 13 13
18 18 19 19 19 18 17 15 13 14 15 15 16 16 15 15 15 14 14 14 15 15 15 15 14 14 14 14 14 14 14 14 14 14 14 14 14 14 13 13 13 13 13 13
17 17 18 18 18 18 17 16 14 13 14 15 15 15 16 15 14 14 14 15 15 15 15 14 14 14 14 14 14 14 14 14 14 14 14 14 14 14 13 13 13 13 13 13
16 15 16 17 18 18 17 16 14 15 15 13 14 15 16 14 14 14 15 15 15 15 15 14 14 14 14 14 14 14 14 14 14 13 14 14 14 14 13 13 13 13 13 13
16 15 15 16 17 17 17 16 15 13 13 13 14 15 15 14 14 15 15 15 15 15 14 14 14 14 14 14 14 14 13 13 13 13 13 13 13 13 13 13 13 13 13 13
15 14 15 16 16 16 17 17 15 14 14 14 14 15 15 14 14 14 15 15 15 15 14 14 14 14 14 13 13 13 13 13 13 13 13 13 13 13 13 13 13 13 13 12
15 15 15 16 17 17 17 17 16 15 15 15 15 15 15 14 14 14 15 15 15 15 14 14 14 14 14 14 13 13 13 13 13 13 13 13 13 13 13 13 13 13 13 12
13 15 16 16 17 17 17 17 17 16 16 15 15 15 15 15 15 14 15 15 14 15 14 14 14 14 14 14 14 13 13 13 13 13 13 13 13 13 13 13 13 13 13 12
13 14 15 15 16 17 16 17 17 16 16 15 15 15 14 14 14 14 15 15 15 15 15 14 14 14 14 14 14 14 14 13 13 13 13 13 13 13 13 13 13 13 13 12
13 13 12 14 16 17 16 16 16 16 15 15 15 15 14 14 15 16 16 16 15 15 15 15 15 15 14 14 14 14 13 13 13 13 13 13 13 13 13 13 13 12 12 12
12 13 13 13 15 15 16 16 16 16 16 15 15 14 14 14 15 15 16 16 16 16 15 15 15 15 14 14 14 14 14 14 13 13 13 13 13 13 13 13 12 12 12 12
12 12 13 13 15 15 16 17 17 16 16 15 15 14 14 14 13 14 16 16 16 15 15 15 15 15 14 14 14 14 14 14 13 13 13 13 13 13 13 13 12 12 12 12
14 13 13 13 14 14 15 16 17 16 15 16 15 15 14 14 15 16 16 16 16 15 15 15 15 15 14 14 14 14 14 14 13 13 13 13 13 13 13 13 13 12 12 12
13 13 13 12 14 14 15 15 15 15 16 16 16 16 16 16 16 16 16 16 15 15 15 15 15 15 14 14 14 14 14 14 13 13 13 13 13 13 13 13 13 12 12 12
12 12 12 12 13 14 15 15 16 16 16 16 16 16 16 16 16 16 16 16 15 15 15 15 15 15 14 14 14 14 14 14 13 13 13 13 13 13 13 13 13 13 12 12
13 12 11 12 13 14 15 16 16 16 16 16 16 16 16 16 16 16 15 15 15 15 15 15 14 14 14 14 14 14 14 13 13 13 13 13 13 13 13 13 13 12 12 12
12 12 12 12 13 14 16 16 16 16 16 16 16 16 16 16 16 16 15 15 15 15 15 15 14 14 14 14 14 14 14 13 13 13 13 13 13 13 13 13 12 12 12 12
11 11 11 12 13 13 14 16 16 16 16 16 16 16 16 16 16 16 15 15 15 15 15 15 14 14 14 14 14 14 13 13 13 13 13 13 13 13 12 12 12 12 12 12
Wind_Speed
3 4 1 5 6 5 3 2 1 1 0 3 3 3 2 2 3 3 2 2 2 1 2 2 2 2 3 2 2 2 2 1 1 1 1 1 0 1 1 1 1 1 1 2
5 2 5 2 2 3 2 2 0 1 2 3 3 3 2 2 1 1 2 1 1 2 3 3 3 2 1 1 1 1 2 1 1 1 1 1 1 1 1 1 1 0 1 1
4 4 1 2 2 2 0 3 4 3 2 3 3 2 2 1 1 2 1 1 1 0 0 1 1 2 2 1 0 0 1 1 1 1 1 1 1 1 1 1 1 1 1 1
2 3 1 1 0 2 2 3 4 4 3 0 1 1 3 1 2 2 2 1 1 1 0 0 1 1 1 1 1 1 1 1 1 2 2 2 1 1 2 2 2 1 1 1
2 1 1 1 1 2 2 1 3 3 4 2 3 2 4 1 2 3 3 1 1 1 1 1 1 1 1 1 1 0 1 1 1 1 2 2 1 2 1 1 1 2 2 1
2 1 1 2 1 2 3 5 5 5 4 2 2 2 4 2 4 3 2 2 1 1 0 1 1 1 1 2 2 1 0 1 1 1 2 3 2 2 1 1 2 2 2 1
6 4 3 1 3 4 6 6 4 5 4 3 2 2 4 4 3 3 3 2 1 0 0 1 1 2 2 2 2 2 1 2 2 1 2 3 3 3 3 3 3 2 1 1
2 5 3 1 2 2 2 6 5 3 3 3 2 2 4 3 1 1 2 1 1 1 1 1 1 2 3 3 2 2 2 3 2 2 2 2 2 2 2 3 2 2 2 3
1 4 4 1 1 5 4 2 4 5 1 1 3 3 4 1 2 1 1 0 1 2 2 1 1 2 2 2 3 3 3 3 2 2 2 2 2 2 2 2 2 2 2 2
3 2 4 3 4 5 4 6 5 4 2 2 3 3 3 3 3 2 2 2 3 3 2 2 2 2 2 3 3 2 2 2 2 1 1 1 1 2 2 2 1 1 1 0
2 2 5 4 2 0 3 4 4 4 3 3 2 5 3 5 5 5 5 4 3 3 3 2 2 2 2 2 2 1 1 1 1 1 1 1 1 1 1 1 1 1 1 1
2 4 1 4 3 0 3 3 4 3 2 3 3 5 3 3 3 4 4 4 3 3 3 2 2 2 2 2 2 2 1 1 1 1 1 0 0 0 0 1 1 1 1 1
3 4 3 5 5 4 2 1 2 4 4 3 2 5 3 2 1 2 3 3 3 2 2 1 1 1 2 2 2 2 2 2 2 1 1 1 1 0 0 0 0 1 1 1
4 4 4 4 4 2 3 1 2 4 3 2 4 5 4 3 3 3 3 3 2 2 2 1 1 2 2 2 2 1 2 2 1 1 1 1 1 0 1 0 1 1 1 1
4 2 2 4 3 2 1 2 1 3 4 5 5 5 6 5 5 4 3 2 2 2 2 2 2 2 2 2 2 1 1 1 1 1 0 0 0 0 1 1 1 1 1 1
3 2 1 2 1 1 1 3 1 1 1 2 2 5 5 3 1 1 2 3 3 4 4 3 3 2 2 2 2 2 2 1 0 1 0 0 1 1 1 1 1 1 1 2
2 3 2 2 4 3 3 3 1 2 2 3 4 6 2 1 3 4 4 4 5 5 5 4 4 4 3 3 2 2 2 1 1 1 0 1 1 1 1 1 2 2 2 2
5 4 3 0 3 2 5 3 2 2 2 2 3 3 2 3 3 3 4 5 6 5 4 4 4 3 3 2 1 1 0 1 1 0 0 0 1 1 2 2 2 1 1 1
4 6 3 2 1 4 4 2 1 2 4 3 2 1 1 1 2 2 3 4 5 5 4 4 4 3 2 2 1 1 1 1 1 0 1 1 1 1 2 2 1 1 1 1
4 4 4 3 1 3 5 4 2 2 4 3 3 3 2 4 1 4 4 3 3 2 2 2 2 2 1 1 2 2 1 1 1 1 1 1 2 2 2 1 1 1 1 0
3 3 3 2 3 5 5 4 1 1 5 3 3 3 4 4 5 4 2 2 2 2 2 2 2 2 2 1 3 2 1 1 2 1 1 1 1 2 2 1 1 1 1 1
2 2 2 3 2 5 4 2 2 5 3 2 2 3 4 4 2 1 2 2 2 1 1 2 2 1 1 2 3 2 1 2 1 1 1 1 1 1 1 1 1 1 1 1
3 4 4 5 5 5 3 3 4 2 2 3 2 3 4 3 2 2 2 2 2 2 2 2 3 1 1 2 3 3 2 1 2 2 2 1 1 1 1 2 1 1 1 0
2 1 2 2 5 5 5 4 3 2 2 3 2 3 4 4 3 2 2 2 2 2 2 2 2 2 1 1 2 3 2 2 3 2 1 1 1 1 1 1 1 1 1 1
3 1 0 3 5 6 6 4 3 3 4 3 2 1 3 4 3 3 3 2 2 2 2 3 3 3 2 1 1 2 2 3 3 2 1 1 1 1 0 0 1 2 2 3
2 3 3 5 5 3 6 6 3 3 3 3 2 2 1 2 3 2 2 2 3 2 3 3 3 3 2 1 2 2 2 4 4 2 1 1 1 0 1 0 2 2 2 3
Wind_Direction
64 72 245 240 208 205 196 183 252 294 35 83 117 107 67 62 70 63 57 52 36 6 354 43 59 78 101 110 117 136 131 121 96 112 157 166 250 290 312 293 253 194 182 171
44 305 253 217 153 142 144 126 97 41 59 92 110 83 60 73 81 91 107 69 26 7 12 24 36 58 89 130 143 158 159 153 169 211 192 182 201 275 278 306 333 270 189 192
177 242 222 122 94 90 176 184 195 170 64 61 101 34 2 26 36 36 45 68 74 85 323 360 26 29 26 24 228 196 180 170 192 172 108 60 39 6 346 328 307 321 275 217
224 280 105 92 99 134 266 237 179 151 122 294 92 236 293 282 338 335 322 335 313 317 261 358 13 10 357 310 284 179 171 178 200 162 155 161 191 242 264 271 270 300 316 266
260 268 111 139 252 160 214 85 113 124 121 74 32 128 288 332 301 284 279 282 293 271 236 317 325 311 328 325 323 215 172 195 223 188 178 176 195 228 274 308 312 313 329 345
284 293 165 193 78 114 111 69 57 51 73 55 291 160 272 246 238 260 267 288 320 311 315 355 5 7 347 353 4 5 16 268 249 212 189 184 197 210 247 292 296 303 318 319
342 346 348 64 54 26 64 77 36 10 17 268 284 171 254 259 230 213 232 259 277 290 289 306 333 339 323 321 328 340 317 290 275 228 210 207 211 213 222 237 246 258 283 279
8 323 322 2 154 168 120 126 144 197 231 281 323 241 257 278 245 180 179 195 237 267 252 261 272 271 282 287 292 299 289 290 291 260 236 225 213 213 227 232 233 240 247 251
159 282 314 341 71 117 111 110 147 130 116 326 286 283 300 28 35 45 56 351 277 274 260 273 289 277 277 282 276 267 272 284 294 278 238 227 218 208 222 227 234 246 264 259
157 264 318 327 55 45 109 135 92 104 126 279 292 272 256 261 259 254 247 255 262 271 279 282 287 283 276 279 285 278 266 266 284 285 260 254 236 226 212 203 216 261 284 147
106 132 328 18 57 263 66 73 93 108 144 161 261 276 237 223 227 229 239 244 248 252 257 259 279 281 287 314 314 306 310 310 319 313 298 308 292 243 201 201 219 217 206 142
106 111 319 289 284 167 134 143 143 143 206 166 185 270 302 232 229 220 232 240 245 246 245 254 280 309 334 340 336 339 325 318 314 310 331 348 355 21 162 232 214 161 153 150
115 95 38 350 352 11 38 74 128 125 116 146 177 269 335 8 283 241 230 234 238 241 247 271 292 302 314 321 325 333 330 325 333 356 28 26 4 30 276 301 148 137 145 143
110 99 152 196 235 272 304 305 145 124 138 205 225 255 297 292 264 264 244 233 232 227 225 231 254 270 284 293 297 311 325 334 349 23 59 45 326 266 272 333 98 149 159 158
90 122 220 234 234 200 245 303 131 159 183 193 241 243 257 251 241 242 227 214 218 225 237 233 232 252 270 291 304 310 314 319 346 74 81 259 288 52 72 73 81 100 127 158
75 128 47 325 350 59 -0 330 314 235 206 214 253 270 260 261 228 224 205 203 221 228 234 237 234 244 261 272 284 298 294 295 83 131 208 183 80 79 81 98 99 81 60 57
108 121 97 291 314 358 325 293 251 258 251 193 223 252 261 241 227 222 212 210 222 227 228 228 219 226 241 250 245 241 245 201 129 166 167 97 109 103 94 100 89 79 65 66
140 123 127 70 29 273 257 276 221 234 272 234 247 264 237 238 250 238 211 209 223 223 224 226 218 224 239 240 236 238 152 126 139 144 46 90 115 103 91 85 84 81 83 78
151 139 120 112 201 279 291 286 246 227 282 255 225 258 21 50 49 321 257 223 215 213 217 221 212 210 209 222 207 156 119 124 121 253 245 212 158 137 109 98 98 117 102 75
77 102 119 124 165 251 263 279 255 163 292 268 195 197 151 105 87 279 272 244 225 220 209 203 188 162 176 227 149 134 142 126 223 240 229 187 156 153 157 169 173 135 120 148
35 50 114 157 216 264 274 292 76 127 266 277 205 195 171 186 217 253 251 216 203 196 189 163 153 168 198 175 135 139 150 229 245 208 144 129 136 157 170 155 133 119 91 45
174 148 165 145 199 266 313 56 150 240 281 275 227 206 196 219 237 231 198 186 170 160 142 138 144 171 178 150 140 147 215 251 203 125 116 122 124 144 138 131 95 81 101 59
192 193 190 191 214 251 276 250 264 231 260 264 249 244 202 194 216 218 208 195 182 163 154 144 148 155 160 156 157 173 235 214 135 120 113 113 106 111 134 137 128 69 71 58
284 138 154 261 273 282 291 293 301 271 265 280 260 223 189 186 202 206 196 195 178 174 178 157 150 167 203 201 191 203 216 163 137 129 126 125 120 85 69 106 141 156 214 254
260 215 246 277 296 321 316 302 297 311 319 322 321 279 207 183 196 197 193 195 195 188 183 169 178 196 213 219 232 219 188 149 142 145 150 137 138 141 98 26 222 212 230 216
232 194 201 247 256 245 273 286 285 283 288 284 288 311 282 195 197 188 198 202 190 184 174 179 193 201 208 208 248 245 173 153 154 164 186 191 188 189 196 263 347 338 269 287
Height
1489 1495 1499 1496 1494 1494 1496 1500 1503 1501 1497 1500 1503 1504 1503 1501 1501 1501 1501 1501 1501 1501 1502 1502 1502 1503 1503 1504 1505 1505 1506 1507 1507 1507 1508 1508 1509 1509 1509 1509 1509 1509 1508 1509
1495 1497 1491 1489 1490 1492 1496 1501 1503 1502 1498 1501 1505 1506 1504 1502 1502 1502 1502 1502 1502 1502 1502 1501 1501 1502 1502 1503 1504 1504 1505 1506 1506 1507 1507 1507 1508 1508 1508 1508 1507 1507 1507 1507
1495 1492 1487 1489 1491 1494 1496 1500 1501 1502 1501 1502 1505 1509 1507 1504 1503 1503 1503 1502 1502 1502 1502 1502 1501 1501 1502 1503 1503 1503 1504 1505 1505 1505 1506 1506 1506 1506 1506 1506 1505 1506 1505 1505
1491 1488 1488 1490 1492 1493 1499 1493 1494 1499 1507 1513 1509 1519 1510 1506 1504 1503 1503 1502 1502 1502 1502 1501 1501 1501 1501 1502 1503 1503 1503 1503 1503 1504 1504 1504 1504 1504 1504 1504 1504 1504 1504 1504
1491 1488 1489 1491 1491 1490 1494 1491 1495 1499 1507 1513 1513 1519 1515 1507 1507 1504 1502 1501 1501 1501 1501 1501 1501 1501 1501 1501 1501 1501 1502 1502 1502 1502 1503 1503 1503 1503 1503 1503 1503 1502 1502 1503
1489 1486 1487 1487 1487 1488 1491 1495 1500 1506 1512 1521 1516 1519 1517 1510 1505 1502 1501 1501 1501 1501 1501 1501 1501 1501 1501 1501 1501 1500 1500 1500 1500 1500 1500 1501 1501 1501 1501 1501 1501 1501 1501 1501
1495 1489 1487 1486 1490 1491 1494 1507 1520 1521 1527 1525 1514 1516 1515 1503 1500 1500 1501 1501 1501 1501 1501 1500 1500 1500 1500 1500 1500 1500 1499 1499 1499 1499 1499 1499 1499 1499 1500 1500 1500 1500 1500 1500
1504 1503 1490 1487 1490 1494 1498 1504 1521 1528 1530 1525 1516 1516 1509 1500 1499 1499 1500 1500 1501 1500 1500 1500 1500 1500 1500 1500 1499 1499 1498 1498 1498 1497 1497 1497 1498 1498 1498 1499 1498 1498 1498 1498
1504 1502 1488 1486 1486 1490 1499 1505 1507 1520 1522 1526 1520 1511 1503 1499 1499 1499 1499 1500 1500 1500 1500 1499 1499 1499 1499 1499 1498 1498 1497 1497 1496 1496 1496 1496 1496 1496 1497 1497 1497 1497 1496 1496
1496 1501 1493 1488 1488 1491 1495 1502 1512 1519 1527 1527 1519 1514 1511 1502 1500 1499 1499 1499 1499 1499 1499 1499 1498 1498 1498 1497 1497 1497 1496 1495 1495 1494 1494 1494 1495 1495 1495 1496 1495 1495 1495 1495
1494 1502 1499 1494 1495 1498 1499 1504 1511 1519 1520 1527 1527 1519 1499 1498 1497 1497 1497 1498 1498 1498 1497 1498 1498 1497 1497 1496 1496 1495 1495 1494 1494 1493 1493 1493 1494 1494 1494 1494 1494 1495 1495 1495
1497 1504 1508 1500 1493 1492 1495 1500 1508 1515 1519 1522 1525 1519 1495 1494 1494 1495 1495 1496 1497 1497 1497 1497 1497 1496 1496 1495 1494 1494 1494 1493 1493 1493 1492 1492 1493 1493 1493 1493 1493 1494 1494 1494
1497 1506 1514 1510 1506 1498 1498 1499 1503 1509 1518 1524 1524 1514 1495 1494 1494 1494 1494 1495 1495 1496 1496 1496 1496 1495 1495 1494 1494 1493 1493 1493 1493 1492 1492 1492 1492 1492 1492 1493 1493 1493 1494 1494
1494 1506 1512 1516 1511 1503 1502 1500 1502 1507 1516 1517 1514 1506 1497 1495 1494 1493 1493 1493 1494 1495 1495 1495 1495 1495 1494 1494 1494 1493 1493 1492 1492 1492 1492 1492 1492 1492 1492 1492 1493 1493 1493 1494
1495 1505 1504 1502 1499 1499 1499 1499 1499 1502 1504 1509 1504 1502 1496 1493 1492 1491 1491 1492 1493 1493 1494 1494 1494 1494 1494 1493 1493 1493 1493 1492 1492 1492 1492 1492 1492 1492 1493 1493 1493 1493 1493 1493
1498 1503 1503 1502 1497 1497 1499 1497 1496 1498 1498 1500 1499 1498 1491 1490 1490 1490 1490 1491 1492 1492 1493 1493 1493 1493 1493 1493 1493 1493 1493 1493 1492 1492 1492 1492 1492 1493 1493 1493 1493 1493 1493 1493
1501 1504 1508 1509 1502 1498 1504 1498 1496 1496 1495 1496 1498 1495 1490 1490 1489 1489 1489 1490 1490 1491 1491 1492 1492 1492 1492 1493 1493 1493 1493 1493 1493 1493 1493 1493 1493 1492 1493 1493 1493 1493 1493 1493
1500 1505 1511 1511 1507 1512 1503 1492 1492 1493 1493 1492 1491 1490 1489 1489 1488 1488 1489 1489 1489 1490 1490 1490 1491 1491 1492 1492 1492 1493 1493 1493 1493 1493 1493 1493 1493 1493 1493 1494 1493 1494 1494 1494
1495 1502 1510 1515 1513 1508 1498 1492 1492 1493 1493 1489 1489 1488 1489 1489 1488 1488 1488 1488 1488 1489 1489 1490 1490 1491 1491 1492 1492 1493 1493 1493 1493 1493 1493 1493 1494 1494 1494 1494 1494 1494 1494 1494
1497 1499 1507 1512 1512 1513 1500 1489 1487 1491 1494 1488 1487 1487 1488 1489 1492 1489 1487 1487 1487 1488 1489 1489 1490 1490 1491 1492 1492 1493 1493 1493 1493 1494 1494 1494 1494 1494 1494 1495 1495 1495 1495 1495
1502 1504 1508 1511 1511 1505 1493 1488 1488 1498 1497 1486 1485 1485 1486 1488 1489 1487 1486 1486 1487 1487 1488 1489 1489 1490 1491 1492 1492 1492 1493 1493 1494 1494 1494 1494 1494 1495 1495 1495 1495 1495 1495 1495
1504 1507 1508 1511 1512 1507 1490 1489 1492 1493 1487 1485 1485 1485 1485 1485 1486 1486 1486 1486 1486 1487 1487 1488 1489 1490 1491 1491 1492 1492 1493 1494 1494 1495 1495 1495 1495 1495 1495 1495 1495 1495 1495 1494
1501 1501 1502 1503 1502 1493 1489 1489 1488 1487 1486 1485 1484 1484 1484 1484 1485 1485 1485 1485 1486 1486 1487 1488 1489 1490 1490 1491 1492 1492 1493 1494 1494 1495 1495 1495 1495 1495 1495 1495 1495 1495 1495 1494
1497 1496 1498 1498 1492 1489 1488 1487 1486 1486 1486 1485 1484 1484 1484 1484 1484 1484 1485 1485 1485 1486 1487 1488 1488 1489 1490 1491 1492 1492 1493 1494 1494 1494 1494 1495 1495 1495 1495 1495 1494 1494 1494 1493
1497 1496 1496 1495 1491 1488 1486 1486 1486 1485 1484 1484 1483 1483 1483 1483 1483 1483 1484 1484 1485 1486 1487 1487 1488 1489 1489 1490 1491 1492 1493 1493 1494 1494 1494 1494 1495 1495 1494 1494 1494 1494 1493 1493
1495 1496 1497 1495 1490 1490 1487 1485 1485 1484 1483 1483 1483 1482 1482 1482 1482 1482 1483 1484 1484 1485 1486 1487 1488 1488 1489 1490 1490 1491 1492 1493 1493 1493 1493 1494 1494 1494 1494 1493 1493 1493 1493 1492